Ravenna, OH

1:01 PM EST on February 24, 2017 (GMT -0500)
Ravenna

Weather History for KPOV - December, 2011

Change the Weather History Date:

Tuesday, December 6, 2011

  Actual Average (KCAK) Record (KCAK)
Temperature  
Mean Temperature 38 °F -  
Max Temperature 39 °F 41 °F 67 °F (1998)
Min Temperature 37 °F 26 °F 5 °F (1977)
Degree Days  
Heating Degree Days 27    
Moisture  
Dew Point 38 °F    
Average Humidity 98    
Maximum Humidity 100    
Minimum Humidity 89    
Precipitation  
Precipitation 0.07 in - - ()
Sea Level Pressure  
Sea Level Pressure 30.05 in    
Wind  
Wind Speed 6 mph ()    
Max Wind Speed 12 mph    
Max Gust Speed 16 mph    
Visibility 8.3 miles    
Events Rain    
Averages and records for this station are not official NWS values.
T = Trace of Precipitation, MM = Missing Value Source: Averaged Metar Reports

Daily Weather History Graph

Daily Weather History Graph

Search for Another Location

Airport or City:

Trip Planner

Search our weather history database for the weather conditions in past years. The results will help you decide how hot, cold, wet, or windy it might be!

Date:

Astronomy

Dec. 06, 2011 Rise Set
Actual Time 7:35 AM EST 4:56 PM EST
Civil Twilight 7:04 AM EST 5:26 PM EST
Nautical Twilight 6:30 AM EST 6:01 PM EST
Astronomical Twilight 5:57 AM EST 6:34 PM EST
Moon 2:23 PM EST (12/6) 3:51 AM EST (12/6)
Length of Visible Light 10h 22m
Length of Day
9h 20m
Waxing Gibbous, 86% of the Moon is Illuminated
Dec 6
Waxing Gibbous
Dec 10
Full
Dec 17
Last Quarter
Dec 24
New
Jan 1
First Quarter

Hourly Weather History & Observations

Time (EST) Temp. Windchill Dew Point Humidity Pressure Visibility Wind Dir Wind Speed Gust Speed Precip Events Conditions
12:19 AM 39.6 °F 33.0 °F 39.7 °F 100% 30.07 in 10.0 mi North 10.4 mph - 0.01 in Rain Rain
12:39 AM 39.2 °F 32.0 °F 39.4 °F 100% 30.08 in 5.0 mi North 11.5 mph 16.1 mph 0.02 in Rain Light Rain
12:59 AM 38.8 °F 32.6 °F 38.5 °F 99% 30.05 in 5.0 mi NNE 9.2 mph - 0.04 in Rain Rain
1:19 AM 38.5 °F 32.7 °F 38.5 °F 100% 30.05 in 10.0 mi NNE 8.1 mph 16.1 mph 0.01 in Rain Light Rain
1:39 AM 38.5 °F 32.1 °F 38.3 °F 99% 30.04 in 10.0 mi NNE 9.2 mph - 0.02 in   Drizzle
1:59 AM 38.7 °F 33.6 °F 38.3 °F 99% 30.05 in 10.0 mi North 6.9 mph - 0.02 in Rain Light Rain
2:19 AM 38.8 °F 33.2 °F 38.5 °F 99% 30.06 in 10.0 mi NNW 8.1 mph - N/A   Light Drizzle
2:39 AM 38.7 °F 34.3 °F 38.7 °F 100% 30.06 in 10.0 mi North 5.8 mph - N/A Rain Heavy Rain
3:38 AM 38.3 °F 33.9 °F 38.3 °F 100% 30.06 in 10.0 mi North 5.8 mph - N/A   Drizzle
3:59 AM 37.8 °F 35.3 °F 37.8 °F 100% 30.06 in 10.0 mi NNE 3.5 mph - N/A Rain Light Rain
4:19 AM 37.8 °F 35.3 °F 37.6 °F 99% 30.07 in 10.0 mi NNW 3.5 mph - N/A   Overcast
4:39 AM 37.8 °F 33.3 °F 37.9 °F 100% 30.08 in 10.0 mi NNW 5.8 mph - N/A Rain Light Rain
4:59 AM 37.4 °F 32.1 °F 37.6 °F 100% 30.07 in 10.0 mi NNW 6.9 mph - N/A Rain Light Rain
5:19 AM 37.6 °F 33.1 °F 37.8 °F 100% 30.07 in 10.0 mi North 5.8 mph - N/A   Overcast
5:39 AM 37.6 °F 34.0 °F 37.8 °F 100% 30.07 in 10.0 mi North 4.6 mph - N/A   Overcast
5:59 AM 37.8 °F 34.2 °F 37.9 °F 100% 30.07 in 10.0 mi North 4.6 mph - N/A   Overcast
6:19 AM 37.9 °F 33.5 °F 38.1 °F 100% 30.07 in 4.0 mi NNW 5.8 mph - N/A   Overcast
6:39 AM 37.8 °F 32.5 °F 38.1 °F 100% 30.07 in 2.5 mi North 6.9 mph - N/A   Overcast
6:59 AM - - - N/A% 30.08 in 2.5 mi North 6.9 mph - N/A   Overcast
7:19 AM 38.3 °F 35.9 °F 38.5 °F 100% 30.08 in 4.0 mi North 3.5 mph - N/A   Overcast
7:38 AM 38.3 °F 34.8 °F 38.5 °F 100% 30.07 in 3.0 mi North 4.6 mph - 0.01 in   Overcast
7:59 AM 38.3 °F 35.9 °F 38.5 °F 100% 30.08 in 4.0 mi North 3.5 mph - 0.01 in   Overcast
8:19 AM 38.3 °F 32.5 °F 38.5 °F 100% 30.08 in 5.0 mi North 8.1 mph - N/A   Overcast
8:39 AM 38.3 °F 33.9 °F 38.3 °F 100% 30.08 in 4.0 mi North 5.8 mph - N/A   Overcast
8:59 AM - - - N/A% 30.09 in 3.0 mi North 5.8 mph - N/A   Overcast
9:19 AM - - - N/A% 30.10 in 3.0 mi North 6.9 mph - N/A   Overcast
9:38 AM - - - N/A% 30.10 in 3.0 mi North 4.6 mph - N/A   Overcast
9:59 AM 38.3 °F 34.8 °F 38.5 °F 100% 30.10 in 3.0 mi North 4.6 mph - N/A   Overcast
10:19 AM 38.3 °F 34.8 °F 38.3 °F 100% 30.10 in 5.0 mi North 4.6 mph - N/A   Overcast
10:39 AM 39.2 °F 37.0 °F 38.3 °F 97% 30.10 in 10.0 mi North 3.5 mph - N/A   Overcast
10:59 AM 39.2 °F 35.9 °F 38.1 °F 96% 30.09 in 10.0 mi NNE 4.6 mph - N/A   Overcast
11:19 AM 39.2 °F 35.9 °F 38.3 °F 97% 30.08 in 10.0 mi North 4.6 mph - N/A   Overcast
11:39 AM 39.4 °F 33.8 °F 38.1 °F 95% 30.08 in 10.0 mi NNE 8.1 mph - N/A   Overcast
12:19 PM 39.2 °F 35.0 °F 37.4 °F 93% 30.07 in 10.0 mi NNW 5.8 mph - N/A   Overcast
12:59 PM 39.4 °F 34.5 °F 37.0 °F 91% 30.05 in 10.0 mi NNW 6.9 mph - N/A   Overcast
1:19 PM 39.2 °F 35.0 °F 36.9 °F 91% 30.05 in 10.0 mi North 5.8 mph - N/A   Overcast
1:39 PM 39.2 °F 34.2 °F 37.8 °F 95% 30.05 in 10.0 mi North 6.9 mph - N/A   Overcast
1:59 PM 38.7 °F 35.2 °F 37.9 °F 97% 30.04 in 10.0 mi North 4.6 mph - N/A   Overcast
2:19 PM 39.2 °F 35.9 °F 37.6 °F 94% 30.03 in 10.0 mi North 4.6 mph - N/A   Overcast
2:39 PM 39.0 °F 34.0 °F 37.2 °F 93% 30.02 in 10.0 mi North 6.9 mph - N/A   Overcast
2:59 PM 39.6 °F 34.7 °F 36.7 °F 89% 30.02 in 10.0 mi NNE 6.9 mph - N/A   Overcast
3:19 PM 39.2 °F 34.2 °F 36.5 °F 90% 30.02 in 10.0 mi NNE 6.9 mph - N/A   Overcast
3:39 PM 38.8 °F 35.4 °F 36.3 °F 91% 30.03 in 10.0 mi NNE 4.6 mph - N/A   Overcast
3:58 PM 38.7 °F 33.6 °F 36.1 °F 91% 30.03 in 10.0 mi North 6.9 mph - N/A   Overcast
4:19 PM 38.5 °F 34.1 °F 36.0 °F 91% 30.03 in 10.0 mi North 5.8 mph - N/A   Overcast
4:39 PM 38.5 °F 34.1 °F 36.0 °F 91% 30.03 in 10.0 mi North 5.8 mph - N/A   Overcast
4:59 PM 38.3 °F - 36.7 °F 94% 30.03 in 10.0 mi Calm Calm - N/A   Overcast
5:19 PM 38.3 °F - 37.0 °F 95% 30.03 in 10.0 mi Calm Calm - N/A   Overcast
5:39 PM 38.3 °F - 37.0 °F 95% 30.04 in 10.0 mi Calm Calm - N/A   Overcast
5:59 PM 37.9 °F 34.4 °F 37.6 °F 99% 30.05 in 4.0 mi NNW 4.6 mph - N/A   Light Drizzle
6:19 PM 37.4 °F 32.8 °F 37.6 °F 100% 30.05 in 3.0 mi NNW 5.8 mph - N/A Rain Light Rain
6:39 PM 37.4 °F 34.9 °F 37.4 °F 100% 30.05 in 3.0 mi NW 3.5 mph - N/A Rain Light Rain
6:58 PM 37.4 °F 34.9 °F 37.4 °F 100% 30.05 in 10.0 mi NNW 3.5 mph - N/A   Overcast
7:19 PM 37.4 °F 34.9 °F 37.4 °F 100% 30.05 in 10.0 mi NW 3.5 mph - N/A   Overcast
7:39 PM 37.4 °F 34.9 °F 37.4 °F 100% 30.05 in 10.0 mi NNW 3.5 mph - N/A   Overcast
7:59 PM 37.4 °F - 37.6 °F 100% 30.05 in 10.0 mi Calm Calm - N/A   Overcast
8:19 PM 37.6 °F 35.1 °F 37.8 °F 100% 30.05 in 10.0 mi NNE 3.5 mph - N/A   Overcast
8:39 PM 37.6 °F 35.1 °F 37.8 °F 100% 30.04 in 10.0 mi NE 3.5 mph - N/A   Overcast
8:59 PM 37.4 °F - 37.6 °F 100% 30.04 in 10.0 mi Calm Calm - N/A   Overcast
9:19 PM 37.6 °F - 37.8 °F 100% 30.03 in 10.0 mi Calm Calm - N/A   Overcast
9:39 PM 37.4 °F - 37.6 °F 100% 30.01 in 10.0 mi Calm Calm - N/A   Overcast
9:59 PM 37.2 °F 34.7 °F 37.4 °F 100% 29.99 in 10.0 mi NE 3.5 mph - N/A   Overcast
10:19 PM 37.4 °F 34.9 °F 37.6 °F 100% 29.99 in 10.0 mi NE 3.5 mph - N/A   Overcast
10:39 PM 37.6 °F - 37.4 °F 99% 30.00 in 10.0 mi Calm Calm - N/A   Overcast
10:59 PM 37.6 °F - 37.4 °F 99% 30.00 in 10.0 mi Calm Calm - N/A   Overcast
11:19 PM 37.8 °F - 37.6 °F 99% 30.00 in 10.0 mi Calm Calm - N/A   Overcast
11:39 PM 37.8 °F - 37.8 °F 100% 30.00 in 10.0 mi Calm Calm - N/A   Overcast
11:59 PM 37.8 °F 34.2 °F 37.6 °F 99% 30.01 in 10.0 mi WNW 4.6 mph - N/A   Overcast